GAOFEN-1

Last updated on Fri Oct 04 2024 00:02:25 GMT+0000 (Coordinated Universal Time)

1 39150U 13018A 24277.56065677 .00004472 00000+0 64642-3 0 9996 2 39150 97.9800 348.7209 0021032 110.3860 249.9611 14.76524355616516
UTC large
Height (km)
Speed (km/s)
/
Latitude / Longitude
Inclination (degrees)
Orbital Period (minutes)
Azimuth
Elevation
Range (km)
Doppler Factor

Next 0 passes for location: London (51.5072 / 0.1276)

Sorry there are no passes over London.